Wind_Speed
8 8 5 6 2 1 6 4 7 8 8 16 5 16 20 26 12 10 20 17 13 11 6 5 7 15 33 45 42 38 39 36 31 31 28 27 27 24 21 17 19 21 22 28
5 2 3 6 3 5 4 3 7 12 3 9 9 19 13 7 4 11 20 15 11 9 6 7 15 26 39 47 43 38 37 36 32 30 27 27 29 28 26 20 18 18 20 32
4 1 7 2 1 9 4 4 3 6 12 3 10 7 7 5 2 8 9 11 7 2 9 15 24 37 44 44 41 37 37 36 33 30 30 28 28 29 28 23 21 18 18 30
1 3 4 2 3 4 4 5 12 13 4 2 7 5 5 6 5 4 6 5 0 7 13 23 39 42 42 43 40 38 38 36 33 31 29 29 29 30 28 26 24 23 21 27
1 4 4 4 3 1 10 15 13 2 4 4 5 3 7 4 4 6 11 5 7 13 24 38 40 34 34 40 38 40 41 38 32 32 29 28 29 30 29 29 27 26 25 24
1 1 2 2 6 2 15 4 2 3 3 3 4 4 6 3 5 4 8 10 12 21 35 38 35 38 43 42 40 44 42 38 33 31 31 31 30 32 32 31 28 27 27 25
7 1 2 3 4 1 8 7 5 8 5 4 1 2 11 7 10 9 7 13 19 29 37 41 46 46 40 38 37 36 40 38 35 35 33 31 32 31 32 32 32 29 28 26
4 6 3 4 4 4 5 5 4 5 4 6 5 6 6 6 8 5 10 17 29 36 43 46 47 47 47 47 42 38 37 38 37 36 36 34 34 34 33 34 34 33 31 30
3 5 2 3 3 4 2 5 2 3 0 3 4 8 10 7 9 14 18 27 35 46 48 49 49 44 45 43 41 40 38 38 38 39 38 38 37 35 35 36 36 36 34 33
2 5 2 2 4 5 5 4 3 3 4 6 4 7 7 6 11 10 13 28 36 42 48 48 46 47 48 46 44 41 39 41 39 40 40 38 38 36 36 35 37 37 36 34
4 3 2 3 4 7 2 2 4 4 4 4 4 8 8 10 10 10 18 30 39 47 48 48 50 50 47 46 43 39 41 43 41 40 40 38 39 39 37 38 39 38 37 37
3 5 5 6 1 3 4 6 5 4 6 2 3 9 6 10 14 21 27 37 43 47 48 51 50 48 46 44 42 48 47 43 41 38 38 38 37 37 39 42 40 38 38 38
5 1 6 4 3 4 2 3 4 4 3 7 5 9 4 6 13 24 29 35 45 48 49 49 47 47 46 46 46 47 44 44 42 39 35 35 36 37 37 38 37 38 38 39
6 3 6 7 8 4 2 5 4 6 3 4 10 17 28 19 22 32 37 42 48 47 48 49 51 50 47 45 45 46 45 43 41 35 32 35 33 35 36 36 36 38 38 40
3 5 5 14 20 14 16 14 9 14 10 7 7 8 23 24 23 34 42 48 46 46 51 53 53 52 50 47 46 46 46 42 38 36 33 31 30 33 35 35 35 37 39 40
3 4 4 6 6 7 9 14 15 19 17 18 29 32 26 35 31 34 39 45 42 49 54 57 57 56 51 50 50 50 46 42 36 33 31 30 30 31 34 35 34 37 39 41
5 1 4 6 7 12 5 8 10 4 5 7 5 14 4 14 23 33 43 44 44 50 56 59 58 56 56 55 52 51 49 45 35 29 28 27 29 30 33 34 34 35 36 40
4 2 2 5 10 6 5 3 5 10 10 13 11 14 15 24 38 42 30 36 48 53 58 58 57 60 58 59 54 51 46 42 37 27 24 25 28 31 32 34 36 34 33 40
5 3 3 3 2 10 3 4 5 6 9 6 10 9 22 32 32 21 23 46 52 52 56 54 55 57 57 56 54 49 42 31 19 17 21 24 28 30 33 35 35 33 33 38
5 4 2 2 1 5 5 3 6 9 5 8 16 13 19 24 14 11 49 53 57 57 58 58 59 56 53 56 53 46 35 19 9 9 16 21 27 29 32 33 33 31 33 37
2 0 5 5 5 11 7 8 9 3 6 4 13 15 14 2 14 40 44 49 51 54 58 55 57 52 53 55 52 45 25 13 5 4 15 19 23 27 28 28 28 29 31 31
8 8 5 4 3 9 12 6 6 3 8 12 10 14 18 23 31 34 39 45 51 55 58 58 57 57 57 54 51 41 25 6 3 9 16 18 21 24 25 27 27 29 27 29
3 7 4 11 8 1 22 16 11 13 15 11 14 16 18 23 31 34 38 42 46 49 54 54 55 54 56 55 51 41 21 8 7 12 15 18 21 23 26 24 28 27 27 26
5 10 4 1 9 17 22 23 31 24 17 14 14 17 18 23 28 33 36 39 43 47 52 52 54 53 54 55 50 37 14 5 7 9 14 17 24 23 20 24 26 27 27 30
4 13 5 8 22 29 33 29 25 19 11 10 14 16 19 22 27 31 35 38 40 44 48 50 49 52 50 53 50 34 18 2 3 8 18 20 17 17 23 24 27 31 29 33
14 8 7 11 15 12 6 8 9 9 8 10 12 16 17 20 25 28 33 35 38 41 44 48 48 50 52 52 50 35 19 9 5 7 13 15 11 19 20 22 24 32 26 30
Wind_Direction
27 55 22 317 7 233 263 245 259 270 302 338 308 294 298 304 261 252 211 198 197 194 220 247 298 314 326 333 336 329 326 326 322 318 318 312 302 292 284 268 267 273 243 229
32 65 265 295 120 346 294 290 288 289 311 324 311 304 304 322 212 207 192 197 189 203 225 281 314 319 322 328 330 327 325 322 320 314 309 303 301 293 286 275 257 255 254 228
108 272 317 7 10 357 298 228 263 283 324 322 320 317 341 332 11 184 181 170 167 10 325 318 319 321 326 325 326 324 322 318 315 313 306 299 294 289 282 276 264 250 250 226
109 0 354 321 50 31 290 205 315 308 31 324 28 294 313 329 325 107 156 170 240 328 319 320 329 328 324 321 319 317 319 315 309 307 302 297 290 287 281 275 266 250 243 228
304 2 2 10 357 117 258 313 304 272 93 56 349 50 270 313 258 230 215 240 314 326 330 330 326 319 315 319 316 315 316 313 307 303 297 293 285 281 279 273 267 256 244 232
282 30 70 269 321 224 288 335 344 57 85 30 248 99 280 267 249 277 228 261 308 321 326 325 318 319 318 320 317 315 313 310 304 299 292 288 280 276 274 270 265 258 249 241
338 291 44 3 330 6 7 17 347 0 7 242 266 28 246 269 275 246 235 282 304 320 323 323 323 319 313 310 307 302 307 305 301 296 290 282 278 274 270 265 261 256 247 241
31 329 25 348 121 193 17 108 133 253 286 293 350 234 257 230 227 277 272 293 310 321 320 320 318 317 315 312 309 302 295 295 299 294 288 283 276 272 266 262 258 252 246 238
23 271 113 45 103 121 320 51 187 95 228 353 255 288 293 231 267 285 293 311 317 318 317 317 315 309 309 307 305 302 295 290 285 285 284 278 277 268 263 261 257 251 245 240
188 315 151 135 89 43 104 154 30 14 1 303 289 283 245 276 252 278 301 304 309 312 313 312 312 312 310 307 303 297 291 289 289 277 278 271 271 264 261 259 254 248 243 239
127 90 277 103 188 175 67 24 48 118 133 190 298 266 222 234 239 253 276 300 310 313 313 312 311 310 307 303 300 296 296 289 287 279 277 268 266 260 253 252 253 247 241 235
203 152 276 236 288 152 135 178 138 131 268 203 158 269 240 233 252 284 288 306 310 312 310 309 309 308 306 305 306 303 304 294 290 284 275 267 263 252 245 249 250 245 239 234
181 269 313 331 25 356 184 210 126 119 97 208 150 263 282 269 276 296 303 310 311 311 310 311 311 311 311 310 307 304 300 294 292 281 277 266 258 251 247 246 244 241 235 232
155 185 199 219 245 133 189 188 205 139 152 204 227 282 295 304 310 315 316 315 313 312 313 315 316 316 314 313 310 306 302 300 296 284 275 264 254 248 242 238 236 236 231 228
159 246 212 260 265 268 265 257 192 202 205 202 270 220 278 294 302 305 312 312 314 314 320 318 317 318 319 317 313 308 306 301 294 286 274 260 251 243 238 234 231 231 227 224
170 271 345 280 267 225 251 249 222 227 245 254 262 272 278 282 299 306 308 310 312 318 318 318 320 322 321 319 315 311 305 300 294 282 265 256 246 236 231 226 222 225 225 221
169 269 2 272 324 306 297 223 185 201 217 178 215 268 286 309 305 309 310 310 313 316 319 319 321 321 321 321 318 313 312 309 297 277 260 242 232 229 224 220 214 219 220 218
158 133 188 284 321 346 241 187 169 206 242 211 277 275 279 287 298 302 315 319 318 320 321 320 322 322 323 325 321 326 325 314 301 276 250 230 223 219 214 211 211 211 211 214
171 110 288 306 250 282 271 201 176 167 280 200 221 259 279 299 299 295 332 328 323 323 322 320 324 325 326 328 331 330 328 328 312 246 229 218 210 207 204 204 206 207 202 210
113 102 145 347 261 274 233 192 160 121 284 207 210 256 285 323 334 324 333 338 336 336 336 329 332 331 332 338 339 331 332 335 294 239 214 196 197 197 197 199 202 196 201 207
143 94 212 224 255 275 256 161 151 52 267 230 235 275 296 270 283 313 333 337 338 339 339 337 338 333 338 346 344 338 344 348 303 170 170 180 186 189 194 195 195 189 200 203
177 164 206 189 265 292 162 130 186 224 313 309 307 318 312 310 318 330 337 340 342 345 350 350 340 344 349 350 351 352 356 337 161 155 167 174 180 183 184 178 183 188 196 198
245 207 185 197 228 203 196 234 236 296 301 304 314 324 321 323 330 335 340 344 345 349 350 347 348 348 0 360 1 358 17 13 150 161 164 169 170 174 163 178 180 185 192 198
232 187 231 19 247 248 268 259 256 265 288 304 319 324 330 329 335 335 343 346 349 355 352 353 356 353 2 5 5 11 29 16 136 149 154 161 164 167 178 180 182 182 184 188
195 153 212 257 278 272 268 260 254 259 266 296 319 329 335 332 338 340 345 351 352 357 357 358 358 358 358 7 5 19 40 63 119 137 158 164 167 172 179 182 180 181 181 191
187 196 189 259 237 232 238 214 209 240 260 303 324 329 333 334 339 345 350 355 355 356 2 1 3 9 5 11 12 25 43 94 176 170 191 191 195 193 190 183 184 183 175 186
Height
1557 1566 1575 1574 1572 1572 1574 1576 1572 1554 1546 1544 1536 1531 1516 1509 1509 1509 1511 1514 1514 1515 1516 1515 1512 1510 1507 1504 1500 1497 1491 1488 1485 1481 1478 1475 1471 1471 1473 1474 1465 1466 1465 1474
1565 1572 1571 1570 1570 1572 1569 1573 1565 1551 1545 1547 1537 1526 1514 1507 1505 1505 1508 1513 1514 1512 1511 1510 1509 1507 1504 1498 1494 1490 1486 1481 1479 1477 1473 1471 1467 1464 1464 1466 1469 1471 1468 1467
1569 1570 1569 1569 1569 1570 1563 1566 1567 1568 1548 1545 1541 1528 1521 1511 1509 1508 1510 1511 1511 1511 1509 1507 1506 1504 1498 1492 1488 1484 1480 1476 1472 1470 1467 1465 1462 1458 1456 1458 1459 1461 1459 1461
1569 1570 1570 1568 1569 1574 1575 1555 1556 1555 1564 1570 1553 1562 1528 1520 1515 1514 1514 1511 1509 1508 1507 1504 1501 1497 1493 1487 1481 1476 1472 1468 1465 1463 1460 1458 1455 1452 1452 1451 1452 1454 1459 1458
1567 1571 1571 1568 1570 1573 1565 1555 1557 1552 1571 1576 1560 1584 1534 1521 1517 1514 1512 1510 1508 1506 1503 1500 1497 1491 1486 1480 1474 1468 1465 1461 1458 1455 1453 1451 1448 1447 1446 1445 1445 1446 1449 1456
1572 1572 1573 1572 1569 1569 1562 1558 1555 1557 1567 1592 1578 1576 1544 1527 1517 1512 1508 1507 1505 1502 1499 1495 1489 1483 1477 1472 1468 1462 1456 1452 1450 1447 1445 1443 1441 1440 1439 1439 1439 1439 1439 1440
1576 1572 1574 1574 1574 1568 1570 1574 1581 1562 1581 1577 1567 1574 1532 1516 1511 1508 1508 1506 1503 1499 1494 1486 1478 1473 1468 1464 1460 1455 1449 1444 1441 1438 1435 1433 1432 1432 1431 1432 1432 1433 1434 1434
1603 1569 1577 1577 1582 1588 1585 1598 1609 1600 1590 1575 1565 1574 1527 1509 1506 1506 1506 1503 1499 1493 1486 1479 1472 1464 1457 1452 1448 1444 1440 1436 1432 1428 1425 1423 1422 1422 1421 1422 1423 1426 1429 1434
1610 1579 1578 1578 1578 1584 1585 1599 1596 1621 1621 1623 1569 1548 1518 1506 1506 1503 1500 1496 1492 1486 1478 1470 1464 1458 1451 1444 1439 1434 1429 1424 1421 1417 1414 1412 1411 1409 1410 1412 1414 1417 1421 1423
1607 1611 1577 1578 1579 1582 1585 1592 1604 1623 1619 1595 1562 1573 1532 1513 1503 1498 1496 1493 1487 1480 1472 1464 1456 1448 1440 1432 1425 1419 1415 1410 1407 1405 1403 1401 1398 1399 1400 1402 1404 1406 1411 1416
1607 1614 1581 1581 1582 1586 1593 1604 1607 1612 1620 1629 1612 1542 1513 1506 1499 1496 1491 1486 1479 1470 1463 1453 1444 1437 1428 1419 1413 1407 1402 1397 1393 1390 1388 1388 1387 1387 1390 1391 1392 1397 1402 1407
1602 1614 1608 1577 1580 1580 1584 1591 1598 1605 1613 1629 1629 1550 1496 1495 1492 1490 1483 1478 1472 1464 1453 1443 1434 1424 1417 1408 1401 1396 1388 1383 1379 1377 1374 1373 1374 1376 1378 1379 1382 1388 1393 1398
1601 1609 1597 1564 1584 1582 1588 1594 1597 1599 1604 1606 1620 1533 1491 1492 1489 1486 1480 1473 1464 1454 1443 1433 1424 1415 1406 1399 1392 1384 1376 1369 1365 1362 1360 1360 1360 1362 1365 1369 1372 1377 1384 1389
1596 1605 1594 1574 1554 1579 1586 1586 1592 1587 1611 1597 1562 1506 1482 1484 1481 1472 1469 1466 1455 1446 1434 1423 1413 1405 1397 1389 1381 1372 1364 1358 1352 1348 1346 1346 1347 1350 1355 1359 1362 1366 1374 1380
1596 1601 1590 1575 1564 1564 1562 1563 1580 1574 1564 1566 1519 1536 1495 1489 1483 1474 1468 1456 1448 1437 1425 1415 1402 1391 1384 1376 1367 1359 1351 1345 1340 1334 1334 1334 1336 1340 1344 1350 1353 1358 1365 1370
1595 1594 1589 1579 1555 1562 1559 1550 1553 1556 1549 1543 1527 1512 1495 1488 1481 1475 1467 1452 1442 1431 1417 1404 1392 1382 1372 1364 1354 1345 1338 1331 1328 1322 1319 1323 1326 1330 1333 1340 1346 1350 1355 1362
1596 1596 1592 1570 1556 1549 1546 1538 1543 1544 1544 1531 1534 1492 1490 1485 1481 1472 1458 1450 1440 1427 1412 1397 1386 1372 1361 1352 1342 1331 1322 1316 1312 1309 1307 1311 1315 1319 1324 1332 1340 1344 1347 1355
1591 1595 1593 1581 1559 1528 1511 1522 1522 1520 1508 1511 1504 1494 1490 1484 1477 1470 1460 1450 1438 1424 1407 1392 1379 1364 1354 1342 1331 1320 1309 1301 1295 1293 1295 1299 1305 1311 1318 1324 1331 1339 1344 1348
1583 1590 1595 1592 1585 1529 1508 1517 1520 1519 1501 1494 1496 1490 1483 1478 1470 1460 1458 1450 1435 1420 1405 1391 1378 1362 1348 1335 1322 1310 1300 1292 1285 1283 1286 1291 1297 1304 1310 1316 1323 1333 1341 1346
1583 1586 1595 1591 1588 1544 1504 1505 1506 1508 1510 1485 1485 1483 1480 1474 1464 1451 1446 1436 1421 1413 1399 1382 1369 1357 1344 1328 1315 1305 1295 1288 1285 1282 1284 1288 1294 1300 1306 1313 1320 1328 1338 1345
1586 1594 1593 1586 1580 1536 1501 1502 1506 1505 1487 1480 1480 1479 1477 1478 1473 1456 1445 1432 1422 1409 1391 1378 1364 1352 1338 1323 1311 1301 1292 1288 1286 1284 1286 1291 1295 1300 1306 1312 1319 1327 1335 1343
1562 1573 1578 1580 1580 1520 1494 1503 1501 1482 1477 1478 1476 1474 1470 1468 1461 1454 1442 1429 1414 1399 1382 1371 1359 1345 1334 1325 1311 1298 1289 1287 1287 1287 1289 1293 1297 1302 1306 1312 1317 1328 1335 1340
1551 1535 1536 1533 1502 1482 1481 1478 1477 1476 1475 1475 1472 1470 1466 1461 1455 1448 1439 1428 1414 1402 1387 1374 1362 1345 1333 1322 1313 1302 1292 1290 1289 1290 1291 1294 1299 1303 1307 1313 1317 1325 1331 1338
1527 1524 1526 1519 1476 1475 1473 1472 1473 1472 1472 1471 1468 1465 1462 1457 1450 1443 1436 1426 1414 1403 1388 1375 1361 1347 1335 1324 1315 1306 1299 1296 1295 1294 1295 1297 1300 1304 1310 1315 1319 1323 1330 1336
1512 1515 1508 1500 1475 1470 1463 1463 1465 1466 1466 1465 1463 1461 1457 1452 1446 1441 1434 1425 1415 1404 1391 1380 1364 1353 1340 1330 1320 1310 1303 1302 1300 1300 1299 1301 1303 1307 1312 1315 1317 1323 1328 1336
1500 1488 1491 1465 1457 1459 1457 1457 1458 1460 1460 1458 1457 1456 1454 1449 1444 1437 1431 1423 1414 1405 1394 1380 1370 1356 1343 1332 1324 1313 1307 1305 1305 1305 1305 1304 1306 1310 1313 1316 1320 1325 1330 1335